Wetbulb
53.91 51.77 50.01 50.69 51.33 50.75 49.66 49.20 47.84 50.24 52.77 50.65 50.06 50.16 51.90 55.76 56.03 55.44 55.73 57.18 57.25 58.13 60.64 62.19 63.22 64.39 65.05 66.21 66.79 67.13 65.64 67.93 66.88 65.34 64.38 64.67 63.87 65.07 65.94 66.66 67.62 68.07 68.61 70.15
51.79 49.82 51.76 51.43 50.78 49.83 49.65 47.96 48.27 50.80 52.28 50.78 50.22 49.56 52.09 53.59 55.49 56.08 56.22 56.30 57.41 58.00 59.23 60.37 63.63 64.80 66.05 66.03 66.52 66.94 66.98 67.53 66.91 64.91 65.05 65.04 65.27 65.45 65.77 66.30 66.53 66.82 67.42 67.66
48.91 50.35 52.07 49.73 49.66 48.91 49.67 48.60 48.60 48.08 50.14 50.69 49.20 47.88 50.71 53.89 55.60 56.32 56.74 57.29 57.80 58.07 57.95 60.05 60.87 64.30 64.68 64.71 65.95 64.88 67.46 67.52 67.39 66.78 65.55 64.69 63.88 63.25 62.93 64.59 65.66 67.21 68.39 68.82
49.94 51.54 49.31 49.99 49.05 49.01 46.69 52.10 50.37 47.96 46.78 43.32 49.95 41.26 48.05 51.96 53.11 54.86 56.03 56.45 57.08 57.66 57.88 58.81 59.44 61.12 62.74 63.48 65.13 66.90 66.64 67.11 65.85 66.68 65.04 63.45 61.21 59.67 61.35 61.42 63.60 63.97 65.89 66.91
49.42 49.19 48.25 48.14 49.09 48.99 47.04 50.46 48.42 47.63 46.39 46.57 46.91 43.89 47.91 53.00 50.73 51.06 52.61 56.57 57.12 56.66 57.13 57.61 57.43 59.06 60.16 61.92 63.30 65.88 66.30 66.17 66.46 66.34 64.63 62.97 61.67 61.20 61.40 61.18 61.84 62.43 63.83 64.64
49.57 52.25 50.03 49.79 49.95 49.24 49.64 48.02 50.08 50.23 48.12 42.17 47.12 45.98 46.21 49.52 51.19 52.23 55.45 56.07 55.44 56.23 56.84 57.69 59.13 59.83 60.39 60.22 61.41 64.61 65.44 65.13 65.42 65.36 64.21 63.52 62.18 61.43 60.76 60.41 59.90 59.54 60.51 62.58
48.81 48.31 50.41 49.71 47.74 50.80 50.92 48.37 42.78 40.75 41.63 40.07 48.49 45.82 47.78 52.50 54.19 54.24 53.53 54.14 55.83 56.46 56.42 56.37 57.25 57.35 58.95 59.48 60.47 61.04 62.62 63.01 63.51 62.14 61.68 61.74 61.27 60.58 59.88 59.92 59.17 58.95 58.97 60.58
45.69 43.11 48.69 50.46 48.02 48.08 48.55 47.32 44.88 33.04 36.59 40.24 46.41 42.74 46.28 53.56 55.11 55.12 55.09 55.54 56.00 55.94 55.73 56.00 56.72 57.46 57.67 59.23 60.97 60.71 60.59 60.13 60.72 60.57 60.44 61.55 60.65 58.97 58.25 57.50 57.41 57.34 57.49 58.26
46.47 44.81 49.90 48.88 49.18 50.11 49.92 47.11 50.08 43.77 45.65 40.81 43.38 47.36 51.46 53.26 53.05 54.07 54.26 54.63 55.03 55.66 56.25 56.20 57.04 57.99 58.40 59.59 60.81 60.95 60.45 59.59 59.95 59.58 59.23 58.53 57.54 56.37 54.76 54.52 54.56 54.37 56.24 57.42
50.66 44.44 49.65 49.49 49.04 50.62 49.22 51.63 44.44 46.96 36.68 35.46 41.06 42.98 44.93 49.03 50.19 52.59 53.02 53.92 54.72 55.55 55.10 56.25 56.45 57.99 58.78 59.39 60.43 61.24 60.11 59.00 58.72 58.10 56.55 55.32 54.95 54.88 53.98 53.55 52.70 52.48 53.33 54.79
50.46 47.83 47.03 48.69 45.95 45.89 49.23 47.41 47.74 47.73 44.85 41.26 36.67 40.71 50.71 50.44 52.24 52.25 53.25 54.29 54.52 54.39 54.66 55.54 55.98 57.58 58.44 59.74 59.01 59.01 58.77 57.79 56.82 55.42 54.29 53.14 52.68 52.87 52.71 51.99 51.70 52.09 52.83 53.37
51.09 49.17 44.44 46.88 50.63 51.22 48.38 46.96 48.31 43.30 41.28 45.75 43.81 42.49 53.01 53.47 53.06 53.66 53.92 54.49 54.34 54.79 54.74 55.21 55.53 56.49 57.54 58.62 58.73 58.13 57.71 55.95 54.63 53.43 51.56 50.33 50.37 50.43 50.32 50.36 50.79 51.44 51.21 52.56
51.60 46.36 40.41 43.19 46.97 49.63 46.89 47.70 48.27 49.07 48.82 42.27 41.21 42.11 53.41 53.86 52.99 54.18 53.53 53.31 53.70 55.01 54.80 54.71 55.84 56.37 57.69 57.78 57.63 57.40 55.87 53.88 52.69 51.24 49.89 49.02 49.12 49.21 48.79 49.69 50.44 51.27 51.57 52.07
53.30 47.48 44.81 43.46 44.39 47.68 46.28 47.71 48.03 47.22 42.93 43.12 44.34 45.45 49.39 51.38 51.57 52.89 53.17 53.64 53.07 54.20 54.48 54.82 55.82 57.29 57.57 57.67 56.93 55.39 53.45 52.27 50.22 49.02 48.21 47.23 46.95 47.34 48.30 48.94 48.95 49.50 50.69 51.24
50.20 43.64 45.63 46.10 46.85 46.80 45.70 45.00 45.38 44.15 45.30 43.00 45.24 45.48 49.16 51.29 51.79 52.46 53.82 53.38 52.86 53.63 54.09 55.09 55.53 56.28 56.35 55.69 54.93 53.22 51.43 49.53 48.09 46.28 46.14 45.32 46.18 46.72 47.48 48.17 49.32 50.85 51.15 52.55
52.45 44.20 46.12 43.89 46.44 46.44 44.67 45.70 45.66 45.55 45.90 45.84 46.63 46.66 51.64 53.59 53.66 52.68 52.32 52.65 52.54 53.15 54.31 55.46 55.79 55.94 54.94 53.32 50.89 49.78 47.78 46.36 45.32 44.91 44.29 44.61 45.11 46.22 46.75 47.93 48.49 48.78 49.14 50.93
50.04 47.40 44.87 40.63 45.53 45.22 41.66 44.69 46.00 46.79 48.50 48.03 44.28 48.55 52.28 51.13 51.07 51.75 52.18 52.85 52.43 53.91 54.11 55.08 55.26 54.78 54.02 51.01 49.14 45.71 44.21 43.96 44.24 43.38 43.61 43.72 44.99 44.40 45.03 46.40 46.45 45.89 46.17 47.67
47.49 47.93 46.13 41.60 43.87 34.87 45.24 50.67 50.99 48.44 48.59 49.37 50.21 51.31 51.77 52.13 53.91 53.62 53.36 52.92 53.82 54.55 54.61 55.19 54.85 53.97 52.33 49.59 46.42 44.30 42.79 42.64 42.69 42.27 42.26 42.82 43.38 43.53 44.27 43.75 43.57 43.87 44.71 44.98
51.68 48.36 42.64 40.28 40.16 43.61 45.53 48.48 48.53 47.59 46.34 51.68 51.02 51.98 52.48 52.84 52.16 51.60 54.02 55.07 55.54 55.07 55.68 55.66 55.05 53.77 50.72 46.35 43.35 41.22 40.81 41.05 41.56 40.58 40.53 41.92 42.66 42.44 42.65 42.16 42.12 42.89 42.82 43.02
49.44 50.90 44.28 41.69 37.22 34.94 46.16 51.16 53.15 52.38 42.83 52.46 52.26 51.48 50.72 50.58 44.48 47.72 54.76 54.98 55.04 55.96 56.33 54.81 54.37 51.81 46.46 43.00 40.85 39.81 38.96 40.26 39.58 38.32 40.00 42.27 42.80 42.47 41.91 41.63 41.41 42.43 42.92 42.18
44.73 44.62 41.24 40.76 39.17 42.72 49.65 52.88 53.44 40.62 43.84 52.25 52.13 51.44 50.37 48.28 50.44 54.17 55.95 55.51 55.90 55.65 55.18 54.20 52.41 49.04 43.67 41.04 39.66 38.19 38.74 38.38 38.69 39.03 40.61 41.45 42.23 41.98 42.11 41.92 42.01 42.05 41.77 41.69
44.32 42.03 42.18 43.60 40.64 37.78 52.37 51.65 46.05 50.46 52.95 52.29 51.90 51.64 50.67 51.95 52.37 52.90 54.47 54.12 54.79 54.45 53.08 51.88 49.44 46.84 43.11 39.90 38.73 37.50 38.10 39.53 38.61 39.98 40.18 40.34 40.88 41.58 41.56 40.88 40.99 41.67 41.31 40.44
42.70 46.95 45.39 45.71 45.73 52.43 51.36 51.30 53.94 52.96 51.42 51.54 51.52 52.04 52.14 51.46 51.81 52.89 53.23 54.39 54.21 53.53 51.72 50.35 47.41 44.26 40.32 39.29 38.58 37.37 39.35 39.85 39.12 38.88 39.61 39.45 39.42 39.30 40.30 39.50 39.59 39.33 40.25 39.50
48.88 50.82 46.59 47.63 50.97 51.77 52.62 54.01 53.50 53.32 51.94 52.32 52.82 52.34 52.42 51.35 51.83 52.54 52.38 53.44 53.46 52.22 49.91 48.25 45.45 41.14 37.57 38.32 38.53 39.20 40.03 40.24 39.85 37.96 37.61 37.43 36.65 36.35 37.71 37.83 37.63 37.31 37.73 37.53
48.75 49.04 47.55 47.47 49.44 50.11 51.18 52.31 52.63 52.44 52.97 52.53 52.51 52.64 52.40 52.51 52.29 52.46 51.87 53.14 53.06 50.58 49.38 46.62 42.86 38.76 37.11 37.99 38.20 40.03 39.30 39.77 39.02 37.40 38.33 37.43 36.95 36.07 36.05 36.23 37.18 37.08 37.39 37.79
49.26 48.01 44.91 44.11 50.01 49.35 49.96 52.31 52.38 51.02 50.98 51.68 51.67 52.27 52.64 53.27 52.37 52.28 51.96 53.11 51.87 49.49 47.77 44.64 41.11 37.86 37.54 37.76 38.22 39.59 40.13 40.28 39.23 38.54 38.72 38.61 37.90 37.18 36.58 36.05 35.67 36.94 37.04 36.92
MSLP
1004.47 1004.26 1003.50 1003.69 1004.10 1004.10 1003.94 1003.32 1002.92 1002.64 1003.10 1004.03 1004.48 1004.26 1003.92 1004.27 1005.04 1005.77 1006.45 1007.21 1007.97 1008.57 1009.11 1009.50 1009.81 1010.08 1010.25 1010.51 1010.66 1010.73 1010.75 1010.74 1010.74 1010.56 1010.28 1009.66 1009.25 1008.67 1007.94 1007.28 1006.75 1006.52 1006.36 1006.12
1004.66 1003.88 1004.36 1004.66 1004.70 1004.66 1004.16 1003.77 1003.36 1003.08 1003.54 1004.23 1004.45 1004.26 1003.93 1003.81 1004.46 1005.57 1006.27 1007.19 1007.98 1008.46 1008.86 1009.19 1009.32 1009.46 1009.72 1010.02 1010.17 1010.30 1010.31 1010.36 1010.45 1010.46 1010.32 1010.01 1009.46 1008.88 1008.28 1007.65 1007.04 1006.31 1006.01 1005.78
1004.20 1004.45 1004.94 1005.00 1004.83 1004.78 1004.27 1004.00 1003.88 1004.08 1004.21 1004.39 1004.07 1003.76 1003.38 1003.14 1004.72 1005.98 1007.32 1008.10 1008.43 1008.40 1008.50 1008.62 1008.80 1009.05 1009.40 1009.62 1009.77 1009.82 1009.94 1010.07 1010.13 1010.13 1009.96 1009.76 1009.65 1009.26 1008.62 1007.67 1007.07 1006.54 1006.12 1005.66
1004.46 1004.98 1005.13 1005.02 1005.00 1005.36 1004.69 1004.62 1004.89 1005.10 1005.05 1004.31 1003.91 1003.68 1003.39 1003.70 1005.22 1006.66 1008.15 1008.06 1008.32 1008.14 1008.15 1008.32 1008.51 1008.74 1009.06 1009.26 1009.38 1009.53 1009.77 1009.86 1009.85 1009.90 1009.82 1009.81 1009.72 1009.36 1008.95 1008.59 1007.72 1007.33 1006.70 1006.11
1004.82 1004.90 1005.30 1005.19 1005.08 1005.80 1005.37 1005.66 1005.83 1005.66 1005.42 1005.04 1004.64 1004.19 1003.72 1004.55 1006.70 1008.50 1009.76 1008.83 1008.23 1007.95 1007.87 1008.00 1008.22 1008.50 1008.69 1008.93 1009.06 1009.20 1009.45 1009.66 1009.79 1009.75 1009.59 1009.46 1009.25 1008.99 1008.61 1008.34 1007.98 1007.60 1006.83 1006.32
1005.18 1005.66 1005.72 1005.47 1005.83 1006.05 1006.12 1006.22 1005.74 1005.36 1005.25 1005.12 1004.67 1004.48 1004.60 1005.45 1006.96 1007.89 1008.22 1008.34 1007.84 1007.63 1007.60 1007.68 1007.95 1008.11 1008.32 1008.58 1008.60 1008.75 1009.05 1009.27 1009.38 1009.42 1009.41 1009.27 1009.01 1008.89 1008.58 1008.21 1007.88 1007.50 1006.98 1006.30
1005.13 1005.32 1005.60 1006.33 1005.84 1005.58 1005.99 1005.90 1005.67 1005.14 1004.90 1004.75 1005.28 1005.12 1005.48 1006.20 1006.89 1007.30 1007.83 1007.78 1007.77 1007.58 1007.52 1007.71 1007.81 1007.92 1008.15 1008.17 1008.26 1008.45 1008.68 1008.86 1009.14 1009.24 1009.22 1009.05 1008.96 1008.82 1008.56 1008.18 1007.70 1007.23 1006.77 1006.18
1004.39 1004.77 1005.15 1005.80 1005.92 1005.75 1005.80 1006.50 1006.94 1007.44 1006.48 1005.82 1005.63 1005.43 1006.52 1006.70 1007.45 1008.00 1007.85 1008.02 1007.85 1007.68 1007.63 1007.65 1007.73 1008.02 1008.02 1007.92 1007.96 1008.27 1008.48 1008.79 1008.92 1008.86 1008.79 1008.64 1008.52 1008.38 1008.30 1008.18 1007.96 1007.39 1006.79 1006.16
1005.06 1004.88 1005.55 1005.95 1006.24 1006.27 1006.20 1006.36 1007.26 1007.85 1008.13 1007.73 1006.33 1006.86 1006.86 1007.70 1008.36 1008.58 1008.47 1008.10 1008.07 1007.74 1007.62 1007.54 1007.65 1007.75 1007.77 1007.77 1007.92 1008.14 1008.52 1008.70 1008.75 1008.70 1008.68 1008.77 1008.75 1008.65 1008.33 1008.07 1007.78 1007.35 1006.73 1006.06
1006.25 1006.08 1005.68 1006.10 1006.61 1006.46 1006.56 1006.92 1007.39 1008.16 1009.00 1008.37 1007.20 1007.14 1007.64 1008.02 1008.73 1008.91 1008.49 1008.03 1007.73 1007.44 1007.34 1007.47 1007.61 1007.55 1007.60 1007.70 1007.89 1008.14 1008.43 1008.61 1008.78 1008.90 1009.05 1008.93 1008.78 1008.52 1008.18 1007.68 1007.21 1006.74 1006.13 1005.72
1006.95 1006.97 1005.93 1006.13 1006.01 1005.45 1006.20 1006.44 1007.24 1007.98 1008.65 1009.18 1008.94 1008.00 1007.87 1008.24 1008.53 1008.70 1008.26 1008.13 1007.68 1007.25 1007.24 1007.42 1007.34 1007.34 1007.53 1007.68 1007.94 1008.31 1008.53 1008.86 1009.05 1009.24 1009.28 1009.10 1008.66 1008.26 1007.87 1007.38 1006.79 1006.16 1005.52 1004.96
1007.78 1007.66 1006.72 1005.80 1005.01 1005.51 1005.97 1006.30 1006.77 1007.66 1008.70 1009.32 1009.36 1008.65 1008.01 1007.86 1008.33 1008.54 1007.98 1007.76 1007.29 1007.26 1007.30 1007.22 1007.36 1007.60 1007.80 1007.92 1008.18 1008.45 1008.78 1009.16 1009.49 1009.66 1009.54 1009.12 1008.54 1007.94 1007.32 1006.66 1006.04 1005.44 1004.76 1004.14
1008.15 1008.22 1007.70 1006.54 1005.90 1006.00 1006.52 1006.50 1006.88 1007.60 1008.34 1008.82 1008.93 1008.49 1007.76 1007.72 1007.80 1008.30 1007.66 1007.54 1007.42 1007.28 1007.33 1007.62 1007.82 1008.02 1008.16 1008.34 1008.55 1008.74 1009.24 1009.68 1009.92 1009.83 1009.47 1008.94 1008.27 1007.58 1006.72 1005.88 1005.10 1004.38 1003.70 1002.98
1009.30 1009.12 1008.58 1007.74 1007.03 1006.41 1006.30 1006.29 1006.65 1007.16 1007.67 1007.90 1007.82 1007.43 1006.91 1007.71 1008.12 1007.94 1007.68 1007.69 1007.59 1007.46 1007.66 1007.92 1008.16 1008.37 1008.60 1008.88 1009.24 1009.58 1009.93 1010.23 1010.31 1009.96 1009.40 1008.70 1007.97 1007.16 1006.24 1005.28 1004.37 1003.42 1002.64 1001.84
1009.91 1009.71 1009.18 1008.35 1007.41 1006.80 1006.35 1006.12 1006.21 1006.39 1006.67 1006.92 1006.92 1006.70 1007.32 1007.86 1008.04 1007.71 1007.83 1007.89 1007.79 1007.93 1008.05 1008.21 1008.44 1008.70 1009.13 1009.64 1009.94 1010.31 1010.68 1010.79 1010.55 1010.03 1009.32 1008.56 1007.69 1006.77 1005.70 1004.62 1003.51 1002.58 1001.74 1000.51
1009.58 1009.93 1009.74 1008.87 1007.98 1007.09 1006.24 1005.90 1005.88 1005.89 1005.90 1005.90 1006.02 1006.13 1007.67 1007.94 1008.09 1007.71 1007.87 1008.11 1008.39 1008.59 1008.50 1008.69 1008.93 1009.30 1009.90 1010.49 1010.99 1011.20 1011.38 1011.27 1010.80 1010.04 1009.31 1008.44 1007.44 1006.40 1005.38 1004.26 1003.24 1002.39 1001.38 1000.02
1009.35 1009.72 1009.86 1009.08 1008.26 1007.28 1006.09 1005.18 1005.02 1004.99 1005.08 1005.08 1005.71 1006.79 1006.50 1007.17 1007.80 1008.12 1008.36 1008.69 1008.92 1008.89 1008.94 1009.16 1009.55 1010.06 1010.64 1011.38 1011.84 1012.11 1012.05 1011.60 1010.80 1010.16 1009.25 1008.29 1007.31 1006.34 1005.34 1004.27 1003.48 1002.60 1001.78 1000.83
1009.41 1009.84 1010.12 1009.60 1009.06 1007.56 1006.16 1005.15 1004.79 1005.12 1005.44 1005.57 1005.80 1006.29 1006.85 1007.53 1008.18 1008.27 1008.96 1009.08 1009.03 1009.09 1009.36 1009.64 1010.11 1010.66 1011.38 1012.08 1012.59 1012.75 1012.46 1011.74 1011.04 1010.20 1009.44 1008.41 1007.42 1006.56 1005.59 1004.90 1004.17 1003.39 1002.60 1001.96
1009.09 1009.73 1009.88 1009.60 1008.78 1007.55 1006.48 1005.48 1005.00 1006.12 1006.82 1006.66 1006.69 1007.03 1007.64 1007.92 1008.22 1008.33 1008.82 1008.99 1008.99 1009.26 1009.54 1010.18 1010.72 1011.30 1012.04 1012.88 1013.48 1013.40 1012.78 1012.04 1011.27 1010.61 1009.76 1008.70 1007.81 1006.96 1006.33 1005.57 1004.99 1004.46 1003.84 1003.17
1008.38 1009.17 1010.02 1009.94 1009.03 1007.77 1006.69 1006.79 1006.80 1006.72 1007.39 1008.24 1007.95 1008.13 1008.55 1008.74 1008.69 1008.77 1009.12 1009.10 1009.29 1009.53 1009.88 1010.62 1011.20 1011.92 1013.12 1013.93 1014.17 1013.76 1013.20 1012.37 1011.69 1011.08 1010.19 1009.26 1008.34 1007.67 1007.11 1006.54 1005.92 1005.55 1005.17 1004.49
1008.44 1008.80 1009.08 1009.34 1009.19 1008.57 1007.16 1007.38 1007.83 1008.62 1009.29 1008.99 1008.97 1009.10 1009.36 1009.54 1009.78 1009.56 1009.28 1009.30 1009.50 1009.70 1010.44 1011.18 1011.81 1012.86 1014.14 1014.66 1014.69 1014.15 1013.46 1012.82 1012.40 1011.68 1010.76 1009.82 1009.11 1008.44 1008.02 1007.56 1006.93 1006.77 1006.52 1005.94
1007.24 1008.69 1008.61 1008.72 1008.80 1009.10 1009.32 1008.74 1008.92 1009.64 1009.53 1009.25 1009.38 1009.69 1009.75 1009.72 1009.66 1009.41 1009.39 1009.59 1009.71 1010.23 1011.29 1012.04 1012.83 1013.86 1014.76 1015.42 1015.11 1014.51 1013.77 1013.31 1012.91 1012.12 1011.38 1010.78 1010.00 1009.53 1008.99 1008.60 1008.16 1008.07 1007.89 1007.60
1006.88 1007.28 1007.70 1009.14 1009.29 1010.02 1009.50 1010.34 1010.58 1009.74 1009.66 1009.73 1009.91 1009.97 1010.06 1009.93 1009.60 1009.40 1009.79 1009.78 1010.12 1011.22 1012.18 1013.04 1014.02 1014.84 1015.70 1015.93 1015.54 1014.90 1014.28 1013.69 1013.24 1012.60 1012.03 1011.75 1011.32 1010.74 1010.37 1009.94 1009.68 1009.47 1009.27 1009.19
1006.89 1007.30 1008.27 1008.06 1008.32 1008.96 1009.52 1009.45 1009.27 1009.25 1009.36 1010.06 1010.22 1010.31 1010.22 1009.97 1009.78 1009.96 1010.12 1010.13 1010.64 1012.08 1013.03 1013.98 1014.97 1015.79 1016.52 1016.47 1016.01 1015.45 1014.74 1014.24 1013.69 1013.38 1013.17 1012.90 1012.49 1012.24 1011.62 1011.50 1011.34 1011.02 1010.98 1010.89
1007.06 1007.87 1007.94 1008.03 1008.22 1008.17 1008.49 1009.00 1009.28 1009.55 1009.84 1010.09 1010.31 1010.34 1010.21 1009.88 1010.08 1010.38 1010.50 1010.72 1011.74 1013.28 1013.94 1014.91 1015.96 1016.88 1017.25 1017.10 1016.49 1015.86 1015.46 1015.00 1014.39 1014.15 1013.99 1013.86 1013.74 1013.48 1013.21 1013.06 1012.94 1012.73 1012.94 1012.67
1006.79 1006.96 1007.36 1007.65 1008.09 1008.78 1008.88 1009.13 1009.64 1010.13 1010.39 1010.43 1010.36 1010.43 1010.53 1010.41 1010.70 1010.90 1011.18 1011.86 1012.98 1014.13 1014.88 1015.84 1016.94 1017.80 1017.83 1017.67 1017.07 1016.50 1016.11 1015.65 1015.23 1014.98 1014.88 1014.73 1014.72 1014.69 1014.55 1014.42 1014.44 1014.30 1014.14 1013.87
Wind_Speed
1 9 5 12 8 9 10 9 7 6 4 3 8 12 13 12 10 5 7 7 2 2 4 5 5 4 3 4 5 5 6 6 6 7 8 8 9 10 11 11 13 11 10 13
9 10 7 6 4 7 8 7 10 4 3 3 10 14 15 12 12 7 7 3 3 5 4 6 5 4 3 3 4 4 5 5 5 6 7 8 7 9 9 10 12 14 12 10
10 9 2 2 5 7 9 7 9 10 13 12 17 17 17 13 10 8 4 3 5 6 4 7 7 4 5 5 4 5 4 5 4 7 6 7 8 10 10 10 10 8 11 10
9 8 3 3 5 4 11 11 5 8 10 11 15 11 15 14 11 10 7 3 4 3 7 9 9 8 6 6 5 4 5 6 6 6 6 7 8 9 9 11 11 13 16 14
7 2 3 6 2 4 10 8 10 11 12 13 14 9 3 13 12 15 9 11 9 7 9 9 11 10 9 7 6 4 5 6 7 8 7 7 8 8 8 8 12 15 13 14
9 4 3 6 4 7 8 11 14 16 13 10 12 7 7 6 10 14 13 10 6 9 11 10 10 9 7 10 8 4 4 5 6 7 9 11 10 10 9 10 9 10 11 12
10 11 5 4 10 10 10 12 6 5 9 7 12 3 8 8 10 6 1 5 10 11 13 14 14 13 12 11 9 7 7 6 6 9 10 11 11 12 14 13 10 12 11 10
10 11 12 8 4 8 7 4 2 4 7 12 15 9 8 10 7 1 2 7 11 11 12 13 13 13 13 12 8 9 9 10 9 10 11 9 11 9 9 11 11 11 11 12
7 5 8 3 2 4 1 4 6 2 7 6 7 5 10 15 10 10 11 12 12 11 11 13 12 10 11 11 10 9 10 11 11 12 12 12 12 13 12 14 14 12 14 12
5 6 8 12 4 8 9 4 5 4 2 5 9 6 2 7 1 5 8 11 10 10 13 12 13 11 10 11 10 10 12 13 14 14 13 13 15 14 15 14 16 17 16 16
11 5 3 3 10 11 10 11 5 3 3 3 4 3 5 5 8 8 11 11 13 13 13 12 12 11 12 11 13 13 13 14 14 14 14 15 15 15 15 15 16 16 17 17
2 4 10 12 5 4 9 10 6 3 7 4 5 7 10 4 8 8 11 11 12 14 15 14 16 16 15 12 12 13 13 14 14 14 15 16 16 16 17 16 17 16 17 17
3 6 7 12 11 7 5 8 7 6 6 10 6 6 10 12 8 10 10 13 14 14 14 15 14 14 13 13 13 13 13 14 15 15 15 16 17 17 17 16 17 16 16 17
4 5 8 7 13 9 7 10 10 8 7 9 11 14 15 5 6 10 11 13 15 14 13 14 13 12 13 13 14 13 14 14 15 16 16 17 17 17 17 17 17 17 17 18
3 8 11 13 17 16 15 14 13 14 14 13 14 17 10 8 9 9 12 14 15 16 17 14 14 14 15 15 14 13 13 15 15 16 16 17 17 17 17 17 16 14 15 16
7 9 10 14 15 17 18 16 15 17 17 17 17 12 11 11 9 9 14 14 13 16 16 16 16 16 16 14 12 14 15 17 16 14 16 16 16 16 16 14 12 11 11 13
9 8 8 13 14 16 16 12 14 15 15 11 10 8 7 11 14 14 13 12 14 13 14 16 15 14 13 11 13 14 17 15 15 15 15 15 14 15 13 11 10 9 10 9
7 8 8 12 14 17 14 14 6 4 7 10 9 9 7 9 10 12 13 10 11 14 15 13 13 13 11 13 14 16 15 15 14 14 15 15 13 12 10 9 10 10 9 10
10 9 11 11 12 15 15 12 6 6 7 13 10 11 12 15 15 11 14 13 13 15 13 11 13 11 13 14 16 14 13 14 13 14 14 14 12 11 9 10 10 9 9 12
10 9 9 12 14 11 10 10 12 8 5 8 11 12 13 15 11 11 15 13 13 12 12 13 13 13 13 13 14 12 13 13 13 14 13 13 11 10 10 10 11 9 9 14
9 11 14 12 12 14 11 6 6 6 2 6 8 10 12 10 10 11 12 10 12 13 16 15 14 14 12 15 12 12 13 12 12 12 11 11 11 10 9 9 9 9 10 13
9 6 12 12 15 9 15 13 7 6 3 7 10 11 11 11 11 12 13 13 14 16 16 17 14 13 12 14 11 12 12 10 10 10 9 10 11 9 9 11 10 9 10 12
11 9 2 6 3 4 4 1 7 1 4 8 9 11 12 13 15 12 12 13 13 16 14 15 14 13 14 12 11 11 11 10 9 10 10 11 11 12 11 11 11 9 10 10
3 1 8 7 9 10 13 16 10 6 5 5 9 12 14 15 14 13 13 12 11 14 13 13 14 14 12 11 11 10 10 10 8 11 12 11 13 13 11 11 10 10 10 10
7 5 6 6 6 11 7 12 9 7 5 7 10 11 13 12 11 11 13 13 14 11 12 12 12 12 10 10 11 10 10 9 10 11 10 11 9 11 13 14 11 12 13 10
8 9 7 6 6 4 6 4 6 7 9 9 8 11 11 12 13 13 12 12 12 10 12 11 12 10 9 9 10 10 9 9 10 9 8 9 9 9 10 10 12 23 20 20
Wind_Direction
178 257 296 8 355 329 310 299 295 308 88 29 276 281 295 183 171 199 199 176 183 14 351 348 354 301 344 353 340 339 330 339 341 323 313 336 324 316 314 313 313 323 331 334
247 234 46 339 307 301 300 290 269 245 236 238 266 261 268 264 175 181 153 142 44 360 337 323 308 322 340 337 321 327 314 323 324 310 323 292 293 293 290 286 286 292 288 281
296 64 17 301 204 256 254 268 318 342 335 302 264 259 246 220 121 118 114 142 239 248 318 325 333 356 15 350 336 321 333 333 326 301 310 327 331 324 317 316 317 304 298 307
283 85 319 268 302 314 295 11 348 296 287 283 337 305 297 172 152 154 301 134 271 329 342 354 333 4 357 331 334 16 4 341 320 320 311 301 300 301 311 308 318 322 320 322
38 168 252 244 11 8 291 5 305 287 280 284 281 263 8 109 79 86 196 244 247 349 349 337 355 342 334 353 326 23 20 350 345 322 280 282 280 280 285 288 306 310 308 306
285 24 254 315 337 262 300 288 263 242 240 249 311 279 141 123 150 171 213 228 315 347 333 353 351 328 356 333 317 347 16 345 319 319 326 317 307 299 295 292 292 291 287 288
196 206 154 237 268 200 231 257 290 288 221 229 230 215 99 141 150 92 83 327 352 348 349 350 337 349 342 317 340 340 350 331 350 336 322 317 319 318 307 300 297 293 287 286
256 184 182 157 296 334 307 326 115 227 344 324 318 340 95 75 68 32 41 354 351 336 344 340 349 348 325 326 333 350 342 351 336 326 317 314 309 306 307 305 314 302 294 291
319 206 113 150 262 277 274 298 63 286 299 289 257 75 105 63 41 15 345 340 326 338 343 339 350 328 326 336 356 354 3 342 334 334 333 333 329 317 306 298 295 294 292 283
353 282 191 135 238 223 254 31 240 137 286 296 326 345 79 175 79 252 309 312 314 334 341 357 336 330 348 345 340 4 352 349 344 344 337 324 310 304 299 294 289 282 277 279
296 242 222 163 220 240 190 222 212 322 319 261 306 320 55 119 205 329 327 332 307 345 348 340 324 340 349 352 357 355 354 352 342 340 329 315 308 308 301 295 290 284 279 274
112 304 269 245 108 27 313 302 304 291 283 181 265 269 308 307 34 287 275 288 347 344 340 342 353 352 340 350 357 351 354 348 340 333 319 313 306 301 295 287 282 278 275 273
24 219 256 247 254 147 263 261 238 251 265 263 267 273 294 296 326 332 327 347 342 345 342 352 351 341 346 352 347 351 356 342 335 322 315 311 307 304 294 291 292 287 279 271
27 290 275 257 322 306 240 226 243 274 288 270 258 266 271 50 352 338 341 341 341 333 354 351 343 345 348 355 355 354 344 341 329 318 315 310 310 304 305 297 292 285 278 269
203 261 269 274 282 280 276 281 281 272 263 257 274 286 50 13 332 341 341 341 345 346 343 345 352 351 358 354 349 344 344 335 325 318 313 312 308 306 301 298 292 296 290 283
211 260 281 281 283 284 283 274 272 272 274 268 267 294 98 262 249 11 344 10 353 333 341 353 353 2 354 358 350 351 342 330 321 317 317 314 312 309 311 311 310 312 319 318
204 240 258 273 287 290 279 271 258 255 265 286 318 293 30 29 17 355 30 5 338 341 353 358 357 5 357 360 3 351 332 324 317 323 319 320 322 319 322 323 333 343 348 348
275 267 244 266 276 271 275 281 294 301 293 313 357 12 19 37 14 348 33 335 343 8 3 6 5 3 8 12 359 344 333 329 327 323 329 328 330 331 343 354 2 6 12 21
223 241 268 267 260 269 277 301 241 28 338 27 29 26 8 1 349 312 19 358 7 12 11 20 16 4 13 11 354 336 333 322 333 338 331 335 338 349 356 19 20 20 36 49
222 211 242 259 271 280 283 47 10 339 218 38 27 20 357 351 331 342 346 349 7 4 20 25 7 17 22 8 350 335 333 338 346 339 336 339 347 1 21 35 34 26 45 63
202 222 217 228 245 262 294 123 176 207 62 21 18 5 351 347 340 321 329 11 2 8 35 15 15 16 22 3 345 337 334 349 348 339 342 353 4 16 27 36 35 43 52 66
199 163 246 242 254 243 1 343 341 49 358 10 15 357 349 337 327 327 349 2 1 35 25 16 10 12 20 0 345 340 346 356 345 339 1 18 19 26 28 38 35 42 58 65
245 266 237 223 147 236 110 303 296 356 9 10 5 353 336 325 325 346 355 353 6 42 30 15 7 10 11 356 348 344 354 7 355 12 17 33 33 34 33 40 44 42 49 60
171 196 262 283 164 188 183 203 227 252 100 23 356 336 329 323 317 8 338 354 24 41 31 18 9 13 3 357 350 350 9 8 9 40 41 39 44 46 41 47 43 52 53 63
276 139 265 264 287 285 350 37 32 18 7 11 342 326 332 322 18 348 352 357 47 45 28 27 23 17 3 357 358 6 33 19 39 47 39 41 44 51 57 54 49 57 49 48
279 281 274 292 22 358 326 95 56 2 330 325 326 351 324 18 12 358 356 51 58 45 33 28 36 24 5 13 5 34 40 46 47 44 48 52 53 54 54 58 59 45 47 44